Terminal Aerodrome Forecast
Issued by NWS North Platte, NE

Home | Current Version | Previous Version | Text Only | Print | Product List | Glossary On
Versions: 1 2 3 4 5 6 7 8 9 10 11 12 13 14 15 16
000
FTUS43 KLBF 030520
TAFLBF
TAF
KLBF 030520Z 0306/0406 VRB05KT P6SM -SHRA SCT035 OVC050
     FM030700 VRB05KT P6SM VCSH OVC050
     FM030900 VRB03KT 5SM BR SCT010
     FM031500 33008KT P6SM SKC=

USA.gov is the U.S. government's official web portal to all federal, state and local government web resources and services.